Miscellaneous Local Product
Issued by NWS North Platte, NE

Home | Current Version | Previous Version | Text Only | Print | Product List | Glossary On
Versions: 1 2 3 4 5 6 7 8 9 10 11 12 13 14 15 16 17 18 19 20 21 22 23 24 25 26 27 28 29 30 31 32 33 34 35 36 37 38 39 40 41 42 43 44 45 46 47 48 49 50
829
AXUS43 KLBF 222010
MISLBF


WESTERN AND NORTH CENTRAL NEBRASKA HOURLY WEATHER ROUNDUP
NATIONAL WEATHER SERVICE NORTH PLATTE NE
300 PM CDT FRI MAY 22 2015

***STATIONS NOT REPORTING VARIABLES SUCH AS SKY/WEATHER OR
PRESSURE ARE PROVIDED BY THE NEBRASKA DEPARTMENT OF
ROADS...RAWS...AND APRS NETWORKS...AND ARE NOT UNDER
NATIONAL WEATHER SERVICE QUALITY CONTROL***

...OBSERVATIONS IN AND NEAR THE EASTERN PANHANDLE OF NEBRASKA...

CITY           SKY/WX    TMP DP  RH WIND       PRES   REMARKS
PINE RIDGE     CLOUDY    53  41  63 SE20G28   30.11R
CHADRON        LGT RAIN  53  43  68 SE14      30.09R
ALLIANCE       CLOUDY    51  44  77 SE20      30.08F
SIDNEY         LGT RAIN  48  47  96 E18       30.06S FOG
WHITECLAY        N/A     50  40  67 SE18        N/A
BIG SPRINGS      N/A     50  48  92 E18         N/A
$$

...OBSERVATIONS IN NORTH CENTRAL NEBRASKA...

CITY           SKY/WX    TMP DP  RH WIND       PRES   REMARKS
VALENTINE      CLOUDY    56  40  55 S26G32    30.17R
THEDFORD       LGT RAIN  49  46  88 SE22G29   30.18F
AINSWORTH      CLOUDY    54  43  66 S20G26    30.20R
O`NEILL        CLOUDY    62  43  50 S16G22    30.21S
ORD            LGT RAIN  51  46  83 SE7       30.22F
BROKEN BOW     LGT RAIN  51  45  79 SE15G24   30.20F
BROWNLEE         N/A     51  47  86 SE18        N/A
VALENTINE NWR    N/A     52  39  61 S16G23      N/A
SPRINGVIEW       N/A     58  44  60 SW14G25     N/A
HALSEY           N/A     47  44  91 SE9G17      N/A
BREWSTER         N/A     49  45  85 SE16        N/A
ROSE             N/A     47  46  97 SE14        N/A
NEWPORT          N/A     58  45  60 S16         N/A
SARGENT          N/A     49  45  86 SE3         N/A
COMSTOCK         N/A     55  48  76 SE8         N/A
EWING            N/A     59  44  58 S16G28      N/A
$$

...OBSERVATIONS IN SOUTHWEST NEBRASKA AND FAR NORTHEAST COLORADO...

CITY           SKY/WX    TMP DP  RH WIND       PRES   REMARKS
WRAY           LGT RAIN N/A N/A N/A E18       30.03F
IMPERIAL       LGT RAIN  49  47  93 SE17G25   30.08F
OGALLALA       CLOUDY    48  46  91 E16G24    30.10F
NORTH PLATTE   LGT RAIN  48  45  89 E17G25    30.15F
MCCOOK         LGT RAIN  50  48  93 E13       30.12F FOG
LEXINGTON      LGT RAIN  50  46  87 E12       30.18F
PAXTON           N/A     49  47  94 E16         N/A
GOTHENBURG       N/A     47  43  87 E10         N/A
CALLAWAY         N/A     47  45  94 E20         N/A
$$

...NORTH PLATTE AREA...

CITY           SKY/WX    TMP DP  RH WIND       PRES   REMARKS
AIRPORT        LGT RAIN  48  45  89 E17G25    30.15F
DOWNTOWN         N/A     46  44  91 E9G17       N/A
$$

...SOME WEATHER OBSERVATIONS FROM AROUND THE REGION...

CITY           SKY/WX    TMP DP  RH WIND       PRES   REMARKS
DENVER         PTSUNNY   55  47  74 VRB5      29.99F
LARAMIE        LGT RAIN  45  40  82 S15       30.01R
CHEYENNE       LGT RAIN  45  42  89 SE13      30.04S
SCOTTSBLUFF    CLOUDY    51  32  48 SE17G24   30.06F
RAPID CITY     CLOUDY    59  43  55 S16       30.08S
PIERRE         PTSUNNY   71  34  25 S28G33    30.11F
WINNER         FAIR      67  37  33 SE15G26   30.15F
SIOUX FALLS    CLOUDY    74  40  29 VRB3      30.18S
OMAHA          CLOUDY    68  39  34 S13       30.23R
GRAND ISLAND   CLOUDY    57  45  64 E8        30.22F
KANSAS CITY    CLOUDY    64  47  53 SE7       30.23F
WICHITA        CLOUDY    59  55  87 SE10      30.17F
HAYS           CLOUDY    55  45  67 SE16      30.13S
LIBERAL        CLOUDY    59  54  82 SE17      30.08F
GOODLAND       CLOUDY    51  50  96 SE18      30.04F
$$



USA.gov is the U.S. government's official web portal to all federal, state and local government web resources and services.